"startDT [UTC]","vpos","CH4 [ppm]","stdev(CH4) [ppm]","CO2 [ppm]","stdev(CO2) [ppm]","H2O [ppm]","stdev(H2O)","p_LGR [torr]","T_LGR [C]","mt1_LGR [us]","mt2_LGR [us]","T_ECpre [C]","T_EC1 [C]","T_EC2 [C]","p_inlet [hPa]","p_in [hPa]","p_out [hPa]","T_inlet [C]","RH_inlet [%]","dwpt_inlet [C]","T_vent [C]","RH_vent [%]","dwpt_vent [C]","flow_vent [l min-1]","flow_inlet [l min-1]","dwpt_sample [C]","T_room [C]"
2012-04-27 00:00:00,0.0,1.8962,0.0010,402.41,0.37,155.4,35.6,138.15,28.16,24.62,36.32,0.04,-272.74,-272.74,-54,557,-934,22.6,5.5,-17.9,22.6,5.7,-17.5,5.73,2.34,-24.9,25.6
2012-04-27 00:01:00,0.0,1.8956,0.0010,402.25,0.37,151.4,37.3,138.15,28.14,24.62,36.32,0.04,-272.74,-272.74,-54,557,-934,22.5,5.5,-17.8,22.5,5.7,-17.5,5.73,2.34,-25.1,26.0
2012-04-27 00:02:00,0.0,1.8957,0.0008,402.17,0.33,141.6,39.5,138.15,28.12,24.61,36.32,0.04,-272.74,-272.74,-54,557,-934,22.5,5.5,-17.8,22.5,5.7,-17.4,5.73,2.50,-25.1,26.1
2012-04-27 00:03:00,0.0,1.8955,0.0009,402.22,0.39,144.3,33.1,138.15,28.10,24.61,36.31,0.04,-272.74,-272.74,-53,556,-935,22.4,5.6,-17.8,22.5,5.7,-17.4,5.73,2.28,-25.1,26.1
2012-04-27 00:04:00,0.0,1.8955,0.0009,402.09,0.40,142.0,31.5,138.15,28.08,24.61,36.32,0.04,-272.74,-272.74,-56,556,-932,22.4,5.5,-17.9,22.5,5.7,-17.5,5.73,2.48,-25.2,26.2
2012-04-27 00:05:00,0.0,1.8954,0.0009,402.19,0.36,142.7,37.8,138.15,28.06,24.61,36.31,0.04,-272.75,-272.74,-54,556,-934,22.4,5.5,-17.9,22.5,5.7,-17.5,5.73,2.28,-25.2,26.1
2012-04-27 00:06:00,0.0,1.8959,0.0009,402.15,0.35,140.6,35.9,138.15,28.04,24.61,36.31,0.04,-272.74,-272.74,-54,556,-933,22.4,5.5,-17.9,22.4,5.7,-17.5,5.73,2.46,-25.2,26.2
2012-04-27 00:07:00,0.0,1.8954,0.0010,402.13,0.27,138.1,40.8,138.15,28.03,24.61,36.31,0.04,-272.74,-272.74,-53,555,-933,22.4,5.5,-17.9,22.4,5.7,-17.5,5.73,2.37,-25.3,26.3
2012-04-27 00:08:00,0.0,1.8952,0.0010,402.13,0.30,145.8,39.8,138.15,28.02,24.61,36.31,0.04,-272.73,-272.73,-54,556,-934,22.3,5.6,-17.9,22.4,5.8,-17.4,5.73,2.33,-25.3,26.2
2012-04-27 00:09:00,0.0,1.8955,0.0009,402.15,0.27,140.3,40.3,138.15,28.01,24.61,36.31,0.04,-272.74,-272.73,-54,555,-933,22.3,5.6,-17.9,22.4,5.7,-17.5,5.73,2.48,-25.3,26.2
2012-04-27 00:10:00,0.0,1.8951,0.0009,402.14,0.27,137.7,44.3,138.15,28.00,24.61,36.31,0.04,-272.74,-272.73,-53,555,-933,22.3,5.6,-17.9,22.4,5.8,-17.4,5.73,2.32,-25.4,26.2
2012-04-27 00:11:00,0.0,1.8955,0.0011,402.22,0.33,128.4,37.0,138.15,27.99,24.61,36.31,0.04,-272.74,-272.74,-54,555,-933,22.3,5.6,-17.9,22.3,5.8,-17.4,5.73,2.38,-25.4,26.2
2012-04-27 00:12:00,0.0,1.8955,0.0010,402.07,0.31,127.0,36.6,138.15,27.98,24.61,36.31,0.04,-272.73,-272.74,-53,555,-933,22.3,5.6,-17.9,22.3,5.8,-17.4,5.73,2.47,-25.4,26.2
2012-04-27 00:13:00,0.0,1.8954,0.0010,402.17,0.30,128.0,42.8,138.15,27.97,24.61,36.31,0.04,-272.74,-272.74,-53,555,-933,22.2,5.6,-17.9,22.3,5.8,-17.5,5.73,2.30,-25.5,26.1
2012-04-27 00:14:00,0.0,1.8952,0.0008,402.09,0.34,129.6,33.9,138.15,27.96,24.61,36.32,0.04,-272.74,-272.74,-53,554,-933,22.2,5.6,-17.9,22.3,5.8,-17.5,5.73,2.41,-25.5,26.1
2012-04-27 00:15:00,0.0,1.8955,0.0012,402.16,0.39,141.5,38.0,138.15,27.95,24.61,36.31,0.04,-272.73,-272.74,-53,554,-933,22.2,5.6,-18.0,22.2,5.8,-17.6,5.73,2.46,-25.5,26.2
2012-04-27 00:16:00,0.0,1.8955,0.0010,402.16,0.36,134.4,40.1,138.15,27.95,24.61,36.31,0.04,-272.73,-272.74,-53,554,-933,22.2,5.6,-18.0,22.2,5.8,-17.5,5.73,2.30,-25.6,26.1
2012-04-27 00:17:00,0.0,1.8956,0.0010,402.05,0.33,137.5,42.4,138.15,27.94,24.61,36.31,0.04,-272.74,-272.74,-52,554,-933,22.1,5.6,-18.0,22.2,5.8,-17.5,5.73,2.41,-25.6,26.1
2012-04-27 00:18:00,0.0,1.8961,0.0010,402.22,0.33,135.4,39.1,138.15,27.93,24.61,36.31,0.04,-272.74,-272.74,-53,554,-933,22.1,5.6,-18.0,22.1,5.8,-17.5,5.73,2.45,-25.6,26.1
2012-04-27 00:19:00,0.0,1.8954,0.0010,402.29,0.35,127.7,33.6,138.15,27.93,24.61,36.31,0.04,-272.74,-272.74,-53,554,-933,22.1,5.6,-17.9,22.1,5.8,-17.5,5.73,2.31,-25.7,26.0
2012-04-27 00:20:00,0.0,1.8958,0.0011,402.32,0.37,127.8,37.3,138.15,27.92,24.61,36.30,0.04,-272.74,-272.74,-52,554,-933,22.1,5.6,-18.0,22.1,5.8,-17.5,5.73,2.41,-25.7,25.9
2012-04-27 00:21:00,0.0,1.8958,0.0009,402.09,0.37,126.5,34.3,138.15,27.91,24.61,36.31,0.04,-272.74,-272.73,-53,554,-933,22.0,5.6,-18.0,22.1,5.8,-17.6,5.73,2.46,-25.7,25.9
2012-04-27 00:22:00,0.0,1.8953,0.0009,402.26,0.38,128.7,42.3,138.15,27.91,24.61,36.31,0.04,-272.74,-272.74,-52,553,-933,22.1,5.6,-18.0,22.1,5.8,-17.5,5.73,2.31,-25.7,26.1
2012-04-27 00:23:00,0.0,1.8958,0.0010,402.28,0.32,132.7,35.6,138.15,27.90,24.61,36.31,0.04,-272.74,-272.73,-52,553,-932,22.0,5.6,-18.0,22.1,5.8,-17.5,5.73,2.40,-25.7,26.2
2012-04-27 00:24:00,0.0,1.8957,0.0009,402.31,0.38,131.0,38.8,138.15,27.90,24.61,36.31,0.04,-272.74,-272.74,-53,553,-932,22.0,5.6,-18.1,22.1,5.8,-17.6,5.73,2.47,-25.7,26.2
2012-04-27 00:25:00,0.0,1.8960,0.0010,402.34,0.33,122.6,34.6,138.15,27.90,24.61,36.31,0.04,-272.73,-272.74,-52,553,-933,22.0,5.5,-18.3,22.1,5.7,-17.8,5.73,2.32,-25.7,26.3
2012-04-27 00:26:00,0.0,1.8960,0.0009,402.39,0.33,131.4,42.6,138.15,27.89,24.61,36.31,0.04,-272.74,-272.74,-52,553,-932,22.0,5.5,-18.2,22.1,5.7,-17.7,5.73,2.37,-25.7,26.3
2012-04-27 00:27:00,0.0,1.8962,0.0010,402.27,0.36,133.1,36.3,138.15,27.89,24.61,36.31,0.04,-272.74,-272.74,-52,553,-932,22.0,5.5,-18.1,22.0,5.8,-17.7,5.73,2.47,-25.7,26.4
2012-04-27 00:28:00,0.0,1.8963,0.0011,402.23,0.34,140.5,38.6,138.15,27.89,24.60,36.32,0.04,-272.74,-272.74,-52,553,-932,22.0,5.5,-18.2,22.0,5.7,-17.7,5.73,2.36,-25.7,26.5
2012-04-27 00:29:00,0.0,1.8965,0.0009,402.30,0.37,142.7,38.8,138.15,27.89,24.61,36.31,0.04,-272.74,-272.74,-52,553,-932,22.0,5.5,-18.3,22.0,5.7,-17.8,5.73,2.34,-25.7,26.6
2012-04-27 00:30:00,0.0,1.8962,0.0008,402.47,0.34,135.0,35.0,138.15,27.89,24.61,36.30,0.04,-272.74,-272.74,-52,553,-932,22.0,5.5,-18.2,22.0,5.8,-17.7,5.73,2.46,-25.7,26.6
2012-04-27 00:31:00,0.0,1.8965,0.0010,402.36,0.27,146.0,37.0,138.14,27.89,24.61,36.31,0.04,-272.74,-272.73,-52,553,-933,22.0,5.5,-18.2,22.0,5.8,-17.7,5.73,2.42,-25.6,26.5
2012-04-27 00:32:00,0.0,1.8966,0.0009,402.40,0.31,143.4,39.4,138.14,27.89,24.61,36.31,0.04,-272.74,-272.74,-52,553,-932,22.0,5.6,-18.1,22.0,5.8,-17.6,5.73,2.31,-25.6,26.5
2012-04-27 00:33:00,0.0,1.8969,0.0008,402.46,0.31,147.2,31.7,138.14,27.89,24.61,36.32,0.04,-272.73,-272.73,-52,553,-932,22.0,5.6,-18.1,22.0,5.8,-17.6,5.73,2.39,-25.6,26.6
2012-04-27 00:34:00,0.0,1.8967,0.0010,402.46,0.29,151.5,33.5,138.14,27.89,24.61,36.32,0.04,-272.74,-272.73,-52,553,-932,22.0,5.6,-18.1,22.0,5.8,-17.6,5.73,2.46,-25.5,26.5
2012-04-27 00:35:00,0.0,1.8971,0.0007,402.48,0.35,155.6,33.8,138.14,27.89,24.61,36.32,0.04,-272.74,-272.74,-52,553,-932,22.0,5.6,-18.1,22.0,5.8,-17.6,5.73,2.35,-25.5,26.6
2012-04-27 00:36:00,0.0,1.8973,0.0010,402.55,0.31,154.4,36.0,138.14,27.90,24.61,36.31,0.04,-272.73,-272.73,-52,553,-932,22.1,5.6,-18.0,22.0,5.8,-17.5,5.73,2.33,-25.5,26.7
2012-04-27 00:37:00,0.0,1.8974,0.0010,402.52,0.32,159.2,40.2,138.14,27.90,24.61,36.31,0.04,-272.74,-272.74,-52,553,-932,22.1,5.6,-17.9,22.0,5.9,-17.4,5.73,2.45,-25.5,26.8
2012-04-27 00:38:00,0.0,1.8974,0.0011,402.64,0.37,157.2,36.9,138.14,27.90,24.61,36.31,0.04,-272.74,-272.74,-52,553,-932,22.1,5.6,-18.0,22.0,5.8,-17.5,5.73,2.42,-25.5,26.8
2012-04-27 00:39:00,0.0,1.8977,0.0009,402.60,0.35,164.4,41.1,138.14,27.90,24.61,36.31,0.04,-272.74,-272.74,-52,553,-932,22.1,5.6,-18.1,22.0,5.8,-17.6,5.73,2.31,-25.4,26.9
2012-04-27 00:40:00,0.0,1.8976,0.0009,402.58,0.30,162.9,40.8,138.14,27.90,24.61,36.31,0.04,-272.73,-272.74,-52,553,-932,22.1,5.5,-18.1,22.1,5.8,-17.6,5.73,2.38,-25.4,26.9
2012-04-27 00:41:00,0.0,1.8975,0.0010,402.64,0.32,174.2,35.3,138.14,27.90,24.61,36.31,0.04,-272.74,-272.74,-52,553,-932,22.1,5.5,-18.2,22.1,5.8,-17.7,5.73,2.47,-25.4,26.8
2012-04-27 00:42:00,0.0,1.8979,0.0010,402.63,0.41,171.2,33.0,138.13,27.90,24.61,36.31,0.04,-272.74,-272.74,-52,553,-932,22.1,5.5,-18.2,22.1,5.8,-17.6,5.73,2.37,-25.4,26.8
2012-04-27 00:43:00,0.0,1.8975,0.0011,402.59,0.34,168.7,34.8,138.13,27.91,24.61,36.32,0.04,-272.73,-272.74,-52,553,-932,22.1,5.5,-18.1,22.1,5.8,-17.6,5.73,2.32,-25.3,26.8
2012-04-27 00:44:00,0.0,1.8981,0.0010,402.64,0.35,162.8,35.0,138.13,27.91,24.61,36.32,0.04,-272.74,-272.74,-52,553,-932,22.1,5.5,-18.1,22.1,5.8,-17.6,5.73,2.42,-25.3,26.9
2012-04-27 00:45:00,0.0,1.8981,0.0009,402.62,0.35,181.3,40.8,138.13,27.91,24.61,36.31,0.04,-272.74,-272.74,-52,553,-932,22.1,5.5,-18.1,22.1,5.8,-17.6,5.73,2.44,-25.3,26.9
2012-04-27 00:46:00,0.0,1.8981,0.0010,402.60,0.34,173.9,44.5,138.13,27.91,24.61,36.32,0.04,-272.73,-272.74,-52,553,-932,22.1,5.6,-18.0,22.1,5.8,-17.5,5.73,2.34,-25.3,26.9
2012-04-27 00:47:00,0.0,1.8981,0.0012,402.67,0.31,179.8,36.1,138.13,27.92,24.61,36.32,0.04,-272.74,-272.74,-52,553,-932,22.1,5.6,-18.0,22.1,5.9,-17.5,5.73,2.34,-25.3,27.0
2012-04-27 00:48:00,0.0,1.8980,0.0010,402.69,0.39,176.3,36.9,138.13,27.92,24.61,36.32,0.04,-272.74,-272.74,-52,553,-932,22.1,5.6,-18.1,22.1,5.8,-17.5,5.73,2.44,-25.2,27.0
2012-04-27 00:49:00,0.0,1.8984,0.0012,402.75,0.38,168.6,34.7,138.13,27.92,24.61,36.31,0.04,-272.74,-272.74,-52,554,-932,22.2,5.6,-18.0,22.1,5.8,-17.5,5.73,2.43,-25.2,27.0
2012-04-27 00:50:00,0.0,1.8988,0.0009,402.72,0.32,182.6,34.2,138.13,27.93,24.61,36.32,0.04,-272.74,-272.74,-52,554,-933,22.2,5.6,-18.0,22.1,5.8,-17.5,5.73,2.32,-25.2,27.0
2012-04-27 00:51:00,0.0,1.8988,0.0010,402.72,0.32,181.1,35.3,138.13,27.93,24.61,36.32,0.04,-272.74,-272.74,-52,553,-931,22.2,5.6,-18.0,22.1,5.8,-17.5,5.73,2.35,-25.2,27.0
2012-04-27 00:52:00,0.0,1.8983,0.0011,402.82,0.29,178.7,35.1,138.13,27.93,24.61,36.31,0.04,-272.73,-272.74,-52,553,-932,22.2,5.6,-18.0,22.1,5.9,-17.4,5.73,2.45,-25.2,26.9
2012-04-27 00:53:00,0.0,1.8985,0.0011,402.73,0.32,184.1,41.1,138.13,27.94,24.61,36.32,0.04,-272.73,-272.74,-52,554,-932,22.2,5.6,-17.9,22.1,5.9,-17.4,5.73,2.42,-25.2,27.0
2012-04-27 00:54:00,0.0,1.8987,0.0010,402.74,0.27,180.5,45.1,138.13,27.94,24.61,36.32,0.04,-272.74,-272.74,-52,554,-932,22.2,5.6,-18.0,22.1,5.9,-17.4,5.73,2.32,-25.2,27.1
2012-04-27 00:55:00,0.0,1.8988,0.0012,402.79,0.37,183.2,37.1,138.13,27.94,24.61,36.31,0.04,-272.74,-272.74,-52,554,-932,22.2,5.6,-18.0,22.1,5.9,-17.4,5.73,2.35,-25.1,27.2
2012-04-27 00:56:00,0.0,1.8989,0.0010,402.72,0.30,188.5,40.9,138.13,27.95,24.61,36.32,0.04,-272.74,-272.74,-52,554,-932,22.2,5.6,-17.9,22.1,5.9,-17.4,5.73,2.44,-25.1,27.3
2012-04-27 00:57:00,0.0,1.8993,0.0009,402.84,0.32,185.8,39.5,138.13,27.95,24.61,36.31,0.04,-272.73,-272.74,-52,554,-931,22.2,5.6,-18.0,22.1,5.9,-17.4,5.73,2.41,-25.1,27.2
2012-04-27 00:58:00,0.0,1.8995,0.0011,402.75,0.29,184.3,40.4,138.13,27.95,24.61,36.31,0.04,-272.74,-272.74,-51,554,-933,22.3,5.5,-18.0,22.1,5.8,-17.5,5.73,2.32,-25.1,27.1
2012-04-27 00:59:00,0.0,1.8992,0.0011,402.65,0.37,188.4,42.3,138.13,27.96,24.61,36.32,0.04,-272.74,-272.74,-52,554,-932,22.3,5.5,-18.0,22.1,5.8,-17.6,5.73,2.36,-25.1,27.3
2012-04-27 01:00:00,0.0,1.8992,0.0011,402.75,0.39,185.3,36.0,138.12,27.96,24.61,36.32,0.04,-272.73,-272.74,-52,554,-932,22.3,5.5,-18.0,22.2,5.8,-17.5,5.73,2.45,-25.1,27.2
2012-04-27 01:01:00,0.0,1.8992,0.0011,402.77,0.37,195.9,38.0,138.12,27.96,24.61,36.31,0.04,-272.74,-272.73,-52,554,-932,22.3,5.5,-18.0,22.2,5.8,-17.5,5.73,2.40,-25.1,27.3
2012-04-27 01:02:00,0.0,1.8995,0.0011,402.76,0.32,191.5,46.0,138.12,27.97,24.61,36.32,0.04,-272.74,-272.74,-52,554,-932,22.3,5.5,-18.0,22.2,5.8,-17.5,5.73,2.31,-25.1,27.4
2012-04-27 01:03:00,0.0,1.8996,0.0009,402.73,0.33,185.3,34.5,138.12,27.97,24.61,36.32,0.04,-272.74,-272.74,-52,554,-932,22.3,5.5,-18.0,22.2,5.8,-17.4,5.73,2.36,-25.0,27.4
2012-04-27 01:04:00,0.0,1.8995,0.0009,402.73,0.31,201.3,33.3,138.12,27.98,24.61,36.32,0.04,-272.73,-272.74,-52,554,-932,22.3,5.5,-18.0,22.2,5.8,-17.5,5.73,2.45,-25.0,27.3
2012-04-27 01:05:00,0.0,1.8997,0.0011,402.85,0.32,188.6,36.2,138.12,27.98,24.61,36.31,0.04,-272.74,-272.74,-52,554,-933,22.3,5.5,-18.1,22.2,5.8,-17.6,5.73,2.40,-25.0,27.4
2012-04-27 01:06:00,0.0,1.8997,0.0012,402.84,0.33,188.4,35.7,138.12,27.99,24.61,36.32,0.04,-272.73,-272.74,-52,554,-932,22.3,5.4,-18.2,22.2,5.7,-17.6,5.73,2.32,-25.0,27.3
2012-04-27 01:07:00,0.0,1.8997,0.0008,402.72,0.40,195.0,40.2,138.12,27.99,24.61,36.32,0.04,-272.74,-272.74,-52,555,-932,22.3,5.4,-18.2,22.2,5.7,-17.6,5.73,2.35,-25.0,27.4
2012-04-27 01:08:00,0.0,1.8997,0.0009,402.70,0.35,198.2,39.9,138.12,28.00,24.61,36.32,0.04,-272.74,-272.74,-52,554,-932,22.4,5.4,-18.2,22.2,5.7,-17.7,5.73,2.44,-25.0,27.3
2012-04-27 01:09:00,0.0,1.8997,0.0012,402.69,0.31,196.5,40.1,138.12,28.00,24.61,36.32,0.04,-272.73,-272.74,-52,555,-932,22.4,5.4,-18.2,22.2,5.7,-17.7,5.73,2.42,-25.0,27.3
2012-04-27 01:10:00,0.0,1.8999,0.0010,402.78,0.34,200.3,35.5,138.12,28.01,24.61,36.32,0.04,-272.74,-272.74,-52,554,-933,22.4,5.4,-18.2,22.3,5.7,-17.6,5.73,2.33,-25.0,27.4
2012-04-27 01:11:00,0.0,1.9001,0.0008,402.72,0.42,206.3,39.4,138.12,28.01,24.61,36.32,0.04,-272.74,-272.74,-52,555,-932,22.4,5.5,-18.1,22.3,5.7,-17.6,5.73,2.34,-25.0,27.3
2012-04-27 01:12:00,0.0,1.9000,0.0010,402.68,0.31,200.6,34.8,138.12,28.02,24.61,36.32,0.04,-272.74,-272.74,-52,555,-932,22.4,5.5,-18.1,22.3,5.7,-17.6,5.73,2.43,-24.9,27.5
2012-04-27 01:13:00,0.0,1.9002,0.0011,402.78,0.39,193.1,38.7,138.12,28.02,24.61,36.32,0.04,-272.74,-272.74,-52,555,-932,22.4,5.5,-18.1,22.3,5.7,-17.5,5.73,2.43,-24.9,27.5
2012-04-27 01:14:00,0.0,1.8999,0.0010,402.65,0.29,194.4,42.0,138.12,28.03,24.61,36.33,0.04,-272.74,-272.74,-52,555,-932,22.4,5.5,-18.0,22.3,5.8,-17.5,5.73,2.34,-24.9,27.5
2012-04-27 01:15:00,0.0,1.9003,0.0009,402.74,0.33,191.0,37.0,138.12,28.04,24.61,36.32,0.04,-272.74,-272.74,-52,555,-933,22.5,5.4,-18.1,22.3,5.7,-17.6,5.73,2.32,-24.9,27.5
2012-04-27 01:16:00,0.0,1.9000,0.0010,402.70,0.33,200.4,35.9,138.12,28.04,24.61,36.32,0.04,-272.74,-272.74,-52,555,-932,22.4,5.5,-18.0,22.3,5.8,-17.4,5.73,2.42,-24.9,27.5
2012-04-27 01:17:00,0.0,1.9001,0.0009,402.83,0.32,207.5,43.7,138.12,28.05,24.61,36.31,0.04,-272.74,-272.74,-52,555,-932,22.5,5.5,-18.0,22.3,5.8,-17.4,5.73,2.43,-24.9,27.4
2012-04-27 01:18:00,0.0,1.9001,0.0011,402.66,0.36,208.6,32.8,138.12,28.05,24.61,36.33,0.04,-272.74,-272.74,-52,555,-932,22.5,5.5,-18.0,22.3,5.8,-17.5,5.73,2.35,-24.9,27.4
2012-04-27 01:19:00,0.0,1.9000,0.0010,402.75,0.36,194.6,38.9,138.12,28.06,24.61,36.32,0.04,-272.74,-272.74,-52,555,-933,22.5,5.5,-18.0,22.3,5.8,-17.5,5.73,2.32,-24.9,27.6
2012-04-27 01:20:00,0.0,1.9003,0.0011,402.69,0.33,188.3,41.1,138.12,28.06,24.61,36.32,0.04,-272.74,-272.74,-52,555,-933,22.5,5.5,-17.9,22.3,5.8,-17.4,5.73,2.39,-24.8,27.6
2012-04-27 01:21:00,0.0,1.9006,0.0010,402.77,0.37,203.5,34.5,138.12,28.07,24.61,36.32,0.04,-272.74,-272.74,-52,555,-932,22.5,5.5,-17.9,22.4,5.8,-17.3,5.73,2.45,-24.8,27.5
2012-04-27 01:22:00,0.0,1.9002,0.0009,402.76,0.38,202.7,42.7,138.12,28.07,24.61,36.32,0.04,-272.73,-272.74,-52,555,-933,22.5,5.4,-18.0,22.4,5.7,-17.5,5.73,2.37,-24.8,27.6
2012-04-27 01:23:00,0.0,1.8999,0.0011,402.69,0.31,204.5,38.1,138.12,28.08,24.61,36.32,0.04,-272.73,-272.73,-52,555,-933,22.5,5.4,-18.0,22.4,5.7,-17.5,5.73,2.31,-24.8,27.6
2012-04-27 01:24:00,0.0,1.9002,0.0010,402.72,0.35,204.5,39.3,138.12,28.08,24.61,36.32,0.04,-272.74,-272.74,-52,555,-932,22.5,5.4,-18.1,22.4,5.7,-17.5,5.73,2.38,-24.8,27.6
2012-04-27 01:25:00,0.0,1.9004,0.0011,402.74,0.30,191.1,42.0,138.12,28.09,24.61,36.32,0.04,-272.74,-272.74,-52,556,-932,22.5,5.4,-18.1,22.4,5.7,-17.5,5.73,2.44,-24.8,27.6
2012-04-27 01:26:00,0.0,1.9005,0.0010,402.80,0.36,197.3,40.0,138.12,28.10,24.61,36.32,0.04,-272.74,-272.74,-52,556,-933,22.6,5.5,-17.9,22.4,5.8,-17.4,5.73,2.39,-24.8,27.7
2012-04-27 01:27:00,0.0,1.9008,0.0012,402.68,0.31,212.6,43.2,138.12,28.11,24.61,36.32,0.04,-272.74,-272.74,-52,556,-933,22.6,5.5,-17.9,22.4,5.8,-17.4,5.73,2.31,-24.8,27.6
2012-04-27 01:28:00,0.0,1.9003,0.0009,402.84,0.28,202.0,37.3,138.12,28.11,24.61,36.32,0.04,-272.74,-272.74,-52,556,-933,22.6,5.5,-17.9,22.4,5.8,-17.4,5.73,2.36,-24.8,27.6
2012-04-27 01:29:00,0.0,1.9003,0.0010,402.80,0.34,200.7,39.5,138.12,28.12,24.61,36.32,0.04,-272.74,-272.74,-52,556,-933,22.6,5.5,-17.9,22.4,5.8,-17.4,5.73,2.44,-24.8,27.5
2012-04-27 01:30:00,0.0,1.9003,0.0010,402.69,0.35,199.6,40.5,138.12,28.12,24.61,36.32,0.04,-272.73,-272.74,-52,556,-933,22.6,5.5,-17.9,22.5,5.8,-17.4,5.73,2.40,-24.7,27.6
2012-04-27 01:31:00,0.0,1.9007,0.0012,402.67,0.36,192.7,40.1,138.11,28.13,24.61,36.32,0.04,-272.74,-272.74,-52,556,-933,22.6,5.5,-17.9,22.5,5.8,-17.4,5.73,2.32,-24.7,27.6
2012-04-27 01:32:00,0.0,1.9002,0.0010,402.68,0.32,204.2,43.4,138.11,28.13,24.61,36.32,0.04,-272.74,-272.74,-52,556,-933,22.6,5.5,-17.9,22.5,5.8,-17.3,5.73,2.34,-24.7,27.7
2012-04-27 01:33:00,0.0,1.9004,0.0008,402.71,0.35,215.1,43.9,138.11,28.14,24.61,36.32,0.04,-272.74,-272.73,-52,556,-933,22.6,5.4,-17.9,22.5,5.8,-17.4,5.73,2.43,-24.7,27.6
2012-04-27 01:34:00,0.0,1.9003,0.0012,402.65,0.32,202.6,40.9,138.11,28.15,24.61,36.32,0.04,-272.73,-272.74,-52,556,-933,22.6,5.4,-18.0,22.5,5.7,-17.5,5.73,2.42,-24.7,27.7
2012-04-27 01:35:00,0.0,1.9006,0.0011,402.62,0.30,200.4,40.0,138.11,28.15,24.61,36.32,0.04,-272.74,-272.74,-52,556,-933,22.7,5.4,-17.9,22.5,5.7,-17.4,5.73,2.33,-24.7,27.7
2012-04-27 01:36:00,0.0,1.9003,0.0010,402.59,0.35,204.5,39.5,138.11,28.16,24.62,36.32,0.04,-272.73,-272.74,-52,556,-933,22.7,5.4,-17.9,22.5,5.7,-17.4,5.73,2.33,-24.7,27.8
2012-04-27 01:37:00,0.0,1.9003,0.0012,402.67,0.39,210.0,41.5,138.11,28.16,24.61,36.32,0.04,-272.73,-272.74,-52,556,-933,22.7,5.4,-18.0,22.5,5.7,-17.5,5.73,2.41,-24.7,27.9
2012-04-27 01:38:00,0.0,1.9001,0.0012,402.66,0.33,214.0,34.6,138.11,28.17,24.61,36.32,0.04,-272.74,-272.74,-52,556,-933,22.7,5.4,-18.1,22.5,5.7,-17.6,5.73,2.44,-24.7,27.9
2012-04-27 01:39:00,0.0,1.9008,0.0010,402.60,0.37,206.3,45.0,138.11,28.18,24.61,36.32,0.04,-272.74,-272.74,-52,556,-933,22.7,5.4,-18.0,22.5,5.7,-17.5,5.73,2.35,-24.6,27.8
2012-04-27 01:40:00,0.0,1.9007,0.0011,402.55,0.28,195.5,37.9,138.11,28.18,24.61,36.33,0.04,-272.74,-272.73,-52,556,-933,22.7,5.4,-18.0,22.5,5.7,-17.4,5.73,2.32,-24.7,27.9
2012-04-27 01:41:00,0.0,1.9005,0.0009,402.71,0.33,210.5,40.7,138.11,28.19,24.61,36.32,0.04,-272.74,-272.74,-52,556,-933,22.7,5.4,-18.0,22.5,5.7,-17.4,5.73,2.39,-24.7,27.8
2012-04-27 01:42:00,0.0,1.9008,0.0009,402.61,0.32,207.4,44.3,138.11,28.20,24.61,36.32,0.04,-272.74,-272.74,-52,556,-933,22.7,5.3,-18.1,22.5,5.7,-17.5,5.73,2.44,-24.7,27.8
2012-04-27 01:43:00,0.0,1.9003,0.0009,402.64,0.31,208.5,30.8,138.11,28.21,24.61,36.32,0.04,-272.73,-272.74,-52,557,-933,22.7,5.3,-18.1,22.5,5.6,-17.6,5.73,2.37,-24.7,27.7
2012-04-27 01:44:00,0.0,1.9005,0.0011,402.61,0.38,208.8,41.5,138.11,28.21,24.61,36.33,0.04,-272.74,-272.74,-52,556,-933,22.7,5.3,-18.1,22.6,5.6,-17.6,5.73,2.31,-24.6,27.8
2012-04-27 01:45:00,0.0,1.9007,0.0009,402.56,0.35,212.5,46.0,138.11,28.22,24.61,36.33,0.04,-272.74,-272.74,-52,556,-933,22.7,5.3,-18.1,22.6,5.6,-17.5,5.73,2.37,-24.6,27.8
2012-04-27 01:46:00,0.0,1.9003,0.0010,402.68,0.34,209.7,39.5,138.11,28.22,24.61,36.32,0.04,-272.74,-272.74,-52,556,-933,22.7,5.3,-18.1,22.6,5.6,-17.6,5.73,2.44,-24.6,27.8
2012-04-27 01:47:00,0.0,1.9006,0.0008,402.63,0.36,208.6,35.1,138.11,28.23,24.61,36.32,0.04,-272.74,-272.74,-53,556,-933,22.8,5.4,-18.0,22.6,5.7,-17.5,5.73,2.39,-24.6,27.9
2012-04-27 01:48:00,0.0,1.9009,0.0009,402.46,0.32,207.3,38.1,138.11,28.24,24.61,36.33,0.04,-272.74,-272.74,-52,557,-933,22.8,5.4,-17.9,22.6,5.7,-17.4,5.73,2.31,-24.6,27.9
2012-04-27 01:49:00,0.0,1.9005,0.0012,402.51,0.37,205.3,38.7,138.11,28.25,24.61,36.33,0.04,-272.74,-272.74,-52,557,-933,22.8,5.4,-17.9,22.6,5.7,-17.4,5.73,2.35,-24.6,27.9
2012-04-27 01:50:00,0.0,1.9005,0.0011,402.64,0.35,204.4,35.5,138.11,28.25,24.61,36.32,0.04,-272.74,-272.74,-53,557,-933,22.8,5.4,-18.0,22.6,5.6,-17.5,5.73,2.43,-24.6,27.8
2012-04-27 01:51:00,0.0,1.9001,0.0011,402.50,0.37,207.2,42.6,138.11,28.26,24.62,36.32,0.04,-272.73,-272.74,-53,557,-933,22.8,5.4,-18.0,22.6,5.7,-17.4,5.73,2.41,-24.6,27.9
2012-04-27 01:52:00,0.0,1.9006,0.0012,402.61,0.30,200.4,41.1,138.11,28.27,24.61,36.32,0.04,-272.74,-272.74,-52,557,-933,22.8,5.3,-18.1,22.7,5.6,-17.5,5.73,2.32,-24.6,27.8
2012-04-27 01:53:00,0.0,1.9006,0.0010,402.60,0.37,207.5,40.6,138.11,28.27,24.61,36.32,0.04,-272.74,-272.74,-52,557,-933,22.8,5.2,-18.2,22.7,5.5,-17.7,5.73,2.33,-24.6,27.9
2012-04-27 01:54:00,0.0,1.9009,0.0012,402.56,0.41,209.7,35.1,138.11,28.28,24.61,36.32,0.04,-272.73,-272.74,-53,557,-933,22.9,5.3,-18.2,22.7,5.6,-17.6,5.73,2.42,-24.5,28.0
2012-04-27 01:55:00,0.0,1.9001,0.0011,402.56,0.31,211.9,33.1,138.11,28.28,24.61,36.33,0.04,-272.74,-272.74,-52,557,-933,22.8,5.2,-18.2,22.7,5.5,-17.7,5.73,2.43,-24.6,28.1
2012-04-27 01:56:00,0.0,1.9004,0.0010,402.48,0.35,209.7,39.7,138.11,28.29,24.62,36.33,0.04,-272.73,-272.74,-52,557,-933,22.9,5.2,-18.3,22.7,5.5,-17.8,5.73,2.34,-24.6,28.0
2012-04-27 01:57:00,0.0,1.9004,0.0009,402.56,0.34,206.5,40.5,138.11,28.30,24.61,36.33,0.04,-272.73,-272.73,-53,557,-933,22.9,5.2,-18.3,22.7,5.5,-17.8,5.73,2.32,-24.6,28.1
2012-04-27 01:58:00,0.0,1.9004,0.0008,402.50,0.33,203.5,36.9,138.11,28.30,24.61,36.33,0.04,-272.74,-272.73,-53,557,-933,22.9,5.2,-18.3,22.7,5.5,-17.8,5.73,2.39,-24.6,27.9
2012-04-27 01:59:00,0.0,1.9007,0.0010,402.52,0.35,204.9,49.4,138.11,28.31,24.61,36.33,0.04,-272.74,-272.74,-52,557,-933,22.9,5.2,-18.4,22.7,5.5,-17.8,5.73,2.44,-24.6,27.8
2012-04-27 02:00:00,0.0,1.9000,0.0009,402.45,0.32,200.9,36.6,138.11,28.31,24.62,36.32,0.04,-272.73,-272.74,-52,557,-933,22.9,5.2,-18.3,22.7,5.5,-17.8,5.73,2.37,-24.5,27.9
2012-04-27 02:01:00,0.0,1.9006,0.0009,402.48,0.33,195.4,41.0,138.11,28.32,24.61,36.33,0.04,-272.73,-272.74,-53,557,-933,22.9,5.2,-18.4,22.7,5.5,-17.9,5.73,2.30,-24.6,27.9
2012-04-27 02:02:00,0.0,1.9004,0.0010,402.57,0.34,211.1,37.9,138.11,28.33,24.62,36.32,0.04,-272.74,-272.74,-52,557,-933,22.9,5.1,-18.4,22.7,5.4,-17.9,5.73,2.36,-24.5,28.1
2012-04-27 02:03:00,0.0,1.9003,0.0011,402.49,0.39,209.1,36.3,138.11,28.34,24.61,36.33,0.04,-272.73,-272.74,-52,557,-933,22.9,5.1,-18.4,22.7,5.4,-17.9,5.73,2.43,-24.5,28.0
2012-04-27 02:04:00,0.0,1.9005,0.0010,402.53,0.29,202.0,35.7,138.11,28.34,24.61,36.33,0.04,-272.73,-272.74,-53,557,-933,22.9,5.2,-18.4,22.7,5.4,-17.9,5.73,2.40,-24.5,28.0
2012-04-27 02:05:00,0.0,1.9001,0.0009,402.44,0.34,209.6,35.5,138.11,28.35,24.62,36.33,0.04,-272.74,-272.74,-53,558,-933,22.9,5.2,-18.3,22.7,5.5,-17.8,5.73,2.32,-24.5,27.9
2012-04-27 02:06:00,0.0,1.8998,0.0009,402.49,0.33,203.4,41.3,138.11,28.36,24.62,36.33,0.04,-272.74,-272.74,-52,557,-933,22.9,5.2,-18.2,22.8,5.5,-17.7,5.73,2.34,-24.5,28.1
2012-04-27 02:07:00,0.0,1.9004,0.0010,402.43,0.31,193.4,40.4,138.11,28.37,24.61,36.33,0.04,-272.73,-272.73,-53,558,-933,22.9,5.2,-18.4,22.8,5.4,-17.8,5.73,2.42,-24.5,28.1
2012-04-27 02:08:00,0.0,1.9007,0.0010,402.42,0.42,197.1,41.6,138.11,28.37,24.61,36.33,0.04,-272.74,-272.74,-53,557,-933,22.9,5.2,-18.4,22.8,5.4,-17.8,5.73,2.42,-24.5,28.0
2012-04-27 02:09:00,0.0,1.9005,0.0009,402.53,0.37,202.9,41.8,138.11,28.38,24.62,36.33,0.04,-272.74,-272.74,-52,557,-933,22.9,5.2,-18.3,22.8,5.5,-17.8,5.73,2.34,-24.5,28.0
2012-04-27 02:10:00,0.0,1.9004,0.0010,402.44,0.38,209.7,40.7,138.11,28.39,24.61,36.33,0.04,-272.73,-272.73,-52,557,-933,22.9,5.2,-18.3,22.8,5.5,-17.7,5.73,2.31,-24.5,28.0
2012-04-27 02:11:00,0.0,1.9001,0.0009,402.45,0.42,203.1,42.0,138.11,28.39,24.62,36.33,0.04,-272.74,-272.73,-53,558,-933,23.0,5.2,-18.3,22.8,5.4,-17.8,5.73,2.39,-24.5,27.9
2012-04-27 02:12:00,0.0,1.8997,0.0009,402.49,0.37,204.7,32.1,138.11,28.40,24.62,36.33,0.04,-272.74,-272.74,-53,558,-933,23.0,5.1,-18.4,22.8,5.4,-17.9,5.73,2.43,-24.5,28.0
2012-04-27 02:13:00,0.0,1.9000,0.0011,402.61,0.39,195.3,41.1,138.11,28.41,24.62,36.32,0.04,-272.73,-272.74,-52,557,-933,23.0,5.2,-18.3,22.8,5.4,-17.8,5.73,2.37,-24.5,27.9
2012-04-27 02:14:00,0.0,1.8998,0.0009,402.42,0.34,203.2,39.2,138.11,28.41,24.62,36.33,0.04,-272.73,-272.74,-53,558,-933,23.0,5.2,-18.3,22.8,5.5,-17.8,5.73,2.31,-24.5,28.0
2012-04-27 02:15:00,0.0,1.9004,0.0009,402.38,0.35,199.4,38.9,138.11,28.42,24.61,36.33,0.04,-272.74,-272.74,-53,557,-933,23.0,5.2,-18.3,22.8,5.4,-17.8,5.73,2.36,-24.5,28.0
2012-04-27 02:16:00,0.0,1.8997,0.0008,402.48,0.38,208.8,38.2,138.11,28.42,24.62,36.32,0.04,-272.73,-272.74,-52,558,-933,23.0,5.2,-18.3,22.8,5.4,-17.8,5.73,2.44,-24.5,28.0